Location: Unspecified
(0.0000°N, 0.0000°E)
Time: 00:08:28
(UTC+00:00)

Envisat - Pass Details

Date: 19 January 2022
Orbit: 764 x 766 km, 98.2° (Epoch: 27 January)

Event Time Altitude Azimuth Distance (km) Brightness Sun altitude
Rises 03:52:31 0° 30° (NNE) 3,214 6.3 -32.1°
Reaches altitude 10° 03:55:02 10° 40° (NE) 2,291 5.6 -31.5°
Maximum altitude 03:59:29 32° 102° (ESE) 1,302 4.7 -30.5°
Drops below altitude 10° 04:03:56 10° 164° (SSE) 2,300 5.9 -29.5°
Sets 04:06:27 0° 174° (S) 3,229 6.6 -28.9°
